sat.trackr.live / text

‹ back to catalog

STARLINK-34316

NORAD 64707 · 2025-142M

PAYLOAD ACTIVE UNKNOWN

§ Identity

Operator
Country
US
Launch date
2025-06-28
Launch site
AFWTR
Launch vehicle
Mass (kg)
RCS (m²)

Purposes: comms

External: N2YO · Heavens-Above · Gunter

§ Orbital elements

Epoch: 2026-09-20T11:53:00.961728Z

Period
94.14 min
Inclination
70.0009°
Eccentricity
0.0003296
Mean motion
15.29591372 rev/d
Perigee alt
474.8 km
Apogee alt
479.3 km
Semi-major
6,855.2 km
B*
3.3030e-4
RAAN
180.7763°
Arg perigee
268.6677°
Mean anomaly
91.4121°
Rev number
6,889

§ Raw data

STARLINK-343161 64707U 25142M   26263.49515002  .00009382  00000+0  33030-3 0  99962 64707  70.0009 180.7763 0003296 268.6677  91.4121 15.29591372 68899

JSON: /api/v1/satellites/64707 · /tle

For live sub-satellite position, see the globe view (requires WebGL).

§ Visibility from observer

Set your observer location to see the next 7 days of passes ≥ 10°. The values pass through the URL so the page stays shareable.

No JS? Fill the form by hand. The geolocation button needs JavaScript.